Regional Weather Roundup
Issued by NWS Wakefield, VA

Home | Current Version | Previous Version | Graphics & Text | Print | Product List | Glossary On
Versions: 1 2 3 4 5 6 7 8 9 10 11 12 13 14 15 16 17 18 19 20 21 22 23 24 25 26 27
000
ASUS41 KAKQ 260914
RWRAKQ

REGIONAL WEATHER ROUNDUP
NATIONAL WEATHER SERVICE WAKEFIELD VA
400 AM EST SUN FEB 26 2017

Note: "fair" indicates few or no clouds below 12,000 feet with no
significant weather and/or obstructions to visibility. * = Denotes
station may not report precipitation (e.g., rain,snow,etc.),
thunder or fog.

VAZ042-051-052>054-056-261000-
NORTHERN VIRGINIA

CITY           SKY/WX    TMP DP  RH WIND       PRES   REMARKS
WASH NATIONAL  MOCLDY    39  20  46 NW21      29.97R
DULLES         PTCLDY    34  17  50 W10       29.97R
FORT BELVOIR   CLEAR     37  18  45 NW12      29.97R
QUANTICO       CLEAR     38  22  52 N21G26    29.98R
FREDERICKSBRG* CLEAR     39  26  58 N5        29.96R
STAFFORD*      CLEAR     35  23  61 CALM      30.00R
WARRENTON      PTCLDY    37  17  44 NW12      29.96R
CULPEPER*      MOCLDY    36  22  56 NE3       29.99R
MANASSAS*      PTCLDY    35  19  52 N12G18    29.98R
LEESBURG*      CLOUDY    36  23  60 MISG      29.98R
WINCHESTER     CLOUDY    32  16  51 W12       29.98R WCI  23
FRONT ROYAL*   SUNNY     32  16  51 W6        29.96R
LURAY*         NOT AVBL
$$

VAZ048-049-060>072-079>083-261000-
CENTRAL AND SOUTH CENTRAL VIRGINIA

CITY           SKY/WX    TMP DP  RH WIND       PRES   REMARKS
RICHMOND       CLEAR     40  23  50 NW7       29.95R
CHESTERFIELD*  FAIR      37  12  35 W7        29.97R
PETERSBURG*    CLEAR     39  20  47 W5        29.97R
HANOVER        CLEAR     39  21  48 NW3       29.97R
TAPPAHANNOCK*  CLEAR     40  12  31 NE5       29.95R
QUINTON*       NOT AVBL
CHARLOTTSVILLE CLEAR     36  17  46 CALM      29.96R
GORDONSVILLE*  NOT AVBL
ORANGE*        CLEAR     36  18  48 W7        29.98R
LOUISA*        CLEAR     39  25  56 NW6       29.94R
BUMPASS*       FAIR      37  22  55 NW3       29.95R
FARMVILLE*     CLEAR     36  24  62 CALM      29.97R
CREWE*         FAIR      36  23  58 CALM      29.97R
FORT PICKETT*  NOT AVBL
CHASE CITY*    FAIR      37  19  49 W5        29.99R
CLARKSVILLE*   FAIR      37  21  52 NW7       29.98R
SOUTH HILL*    CLEAR     38  23  54 NW5       30.03R
LAWRENCEVILLE* NOT AVBL
EMPORIA*       CLEAR     39  23  52 W3        29.98R
$$

VAZ088>098-261000-
SOUTHEAST VIRGINIA

CITY           SKY/WX    TMP DP  RH WIND       PRES   REMARKS
NORFOLK        CLEAR     48  31  51 N14       29.92R
VIRGINIA BEACH CLEAR     45  30  55 N12       29.92R
NORFOLK NAVAL  CLEAR     47  28  47 N15       29.94R
WEST POINT*    CLEAR     41  23  49 NW7       29.96R
SALUDA*        FAIR      42  26  53 NW13G21   29.93R
NEWPORT NEWS   CLEAR     44  26  49 N8        29.94R
LANGLEY AFB    CLEAR     44  28  53 N9        29.93R
FORT EUSTIS    CLEAR     44  25  47 N10G16    29.92R
WILLIAMSBURG*  CLEAR     45  28  53 N8        29.95R
HR EXEC AP*    FAIR      45  21  39 NW5       29.92R
FRANKLIN*      CLEAR     42  23  47 NW5       29.96R
US460-WAKEFLD  CLEAR     41  24  51 CALM      29.95R
$$

VAZ020-022-025-037-045-261000-
WEST CENTRAL AND SOUTHWEST VIRGINIA

CITY           SKY/WX    TMP DP  RH WIND       PRES   REMARKS
STAUNTON*      CLEAR     29  16  57 NW5       29.97R
WAYNESBORO*    SUNNY     30  15  53 SW7       29.93S
HOT SPRINGS VA PTCLDY    21  12  68 NW18G33   29.83R WCI   6
LYNCHBURG      PTCLDY    32  17  54 CALM      29.99R
DANVILLE       CLEAR     35  21  56 W7        30.02R
SOUTH BOSTON*  NOT AVBL
MARTINSVILLE   CLEAR     32  17  52 NW8       30.04R
ROANOKE        CLEAR     33  17  51 W10       30.02R WCI  25
BLACKSBURG     CLEAR     30  18  62 NW17G23   30.00R WCI  18
DUBLIN*        CLEAR     29  17  61 W16G23    30.00R WCI  17
MARION*        PTCLDY    27  17  63 W26G32    30.00S WCI  12
HILLSVILLE*    CLEAR     26  19  74 NW10      29.94R WCI  16
RICHLANDS*     FAIR      24  17  72 CALM      30.03R
WISE*          CLEAR     27  18  69 CALM      30.04R
ABINGDON*      CLEAR     30  17  59 W7        30.06S
$$

MDZ021>025-VAZ099-100-261000-
SOUTHERN MARYLAND AND THE DELMARVA PENINSULA

CITY           SKY/WX    TMP DP  RH WIND       PRES   REMARKS
PATUXENT RIVER CLEAR     39  24  55 W16       29.93R
BAY BRIDGE APT CLOUDY    39  23  52 W15G23    29.94R
LEONARDTOWN    CLEAR     37  23  56 W8        29.96R
DOVER          MOCLDY    40  27  59 NW12G22   29.88R
GEORGETOWN     CLEAR     41  23  48 NW9       29.90R
EASTON         CLEAR     40  22  49 NW15      29.96R
CAMBRIDGE      CLEAR     41  23  48 NW14G23   29.93R
SALISBURY      CLEAR     40  27  59 NW10      29.90R
OCEAN CITY     CLEAR     41  25  53 NW14      29.89R
WALLOPS ISLAND CLEAR     41  27  57 NW10      29.91R
ACCOMACK*      CLEAR     42  29  58 NW10G21   29.92R
$$

NCZ012>017-030>032-261000-
NORTH CENTRAL AND EASTERN NORTH CAROLINA

CITY           SKY/WX    TMP DP  RH WIND       PRES   REMARKS
ROANOKE RAPIDS FAIR      41  25  52 NW6       29.98R
RALEIGH        CLEAR     42  17  36 VRB3      30.00R
ELIZABETH CITY CLEAR     43  26  51 W9        29.93R
AHOSKIE*         N/A     43  22  43 CALM      29.97R
EDENTON*       CLEAR     49  26  41 NW8       29.95R
CURRITUCK*     CLEAR     48  27  43 W5        29.93R
KILL DEVIL HLS NOT AVBL
MANTEO         CLEAR     51  32  47 NW12      29.92R
CAPE HATTERAS  CLEAR     56  32  40 NW9G21    29.91R
TARBORO*       NOT AVBL
GOLDSBORO      CLEAR     47  17  30 NW8       29.97R
WASHINGTON     CLEAR     46  23  40 NW5       29.97R
GREENVILLE     CLEAR     46  19  34 NW8G18    29.99R
NEW BERN       CLEAR     50  26  39 NW10      29.97R
WILMINGTON     CLEAR     50  24  36 NW13      29.97R
$$

VAZ048-261000-
ELSEWHERE

CITY           SKY/WX    TMP DP  RH WIND       PRES   REMARKS
HARRISBURG PA  MOCLDY    35  19  52 NW20G31   29.91R WCI  24
BALTIMORE      MOCLDY    37  22  54 NW13G20   29.94R
ANNAPOLIS      CLOUDY    40  23  50 W13G20    29.94R
ANDREWS AFB    MOCLDY    37  20  49 NW18G24   29.93R
PHILADELPHIA   PTCLDY    39  20  46 W14       29.88R
HENDERSON NC   CLEAR     36  16  44 W6        29.99R
GREENSBORO     CLEAR     37  18  46 NW10      30.00R
ROCKY MOUNT    CLEAR     43  22  43 NW7       29.99R
$$

VAZ100-261000-
MARINE

STATION/POSITION TIME  TEMP    WIND        PRES    WAVE   SWELL
                       AIR SEA DIR/SP/G            HT/PER HT/PER
                 (UTC) (F)     (DEG/KT/KT) (MB)    (FT/S) (FT/S)
CAPE MAY NJ      0848   42 46  300/ 18/ 26 1011.1R
LEWES DE         0848   42 45  310/ 22/ 26 1011.7R
OCEAN-CITY-INLET 0842   43 49  340/ 11/ 14 1012.1R
WACHAPREAGUE VA  0848   43 57  320/  4/  8 1013.0R
THOMAS POINT MD  0900   39 44  300/ 19/ 22   N/A
GOOSES REEF MD   0900   40 44  360/ 19/ 23 1014.2    2/ 3
COVE POINT MD    0848   41     330/ 16/ 20 1014.2R
SOLOMONS ISLAND  0842   41 45  300/ 11/ 16   N/A
BISHOPS HEAD MD  0848   43 51  310/ 23/ 27 1013.5R
PINEY POINT MD   0848          350/ 24/ 27   N/A
POTOMAC MD       0900   42 44  330/ 17/ 23 1012.9    2/ 3
CAMBRIDGE MD     0848   42 47  310/ 20/ 25 1012.7R
LEWISETTA VA     0848   42 50  340/ 15/ 22 1013.4R
RAPPAHANNOCK LGT 0848          330/ 22/ 25 1013.6R
YORK RVR RNG VA  0848   45     350/ 20/ 23 1012.5R
YORKTOWN VA      0848   45 50  330/ 13/ 16 1013.5R
JAMESTOWN VA     0900   44 54  330/  8/ 14   N/A
DOMINION TERM VA 0848   47      50/  1/  4 1013.4R
KIPTOPEKE VA     0848      51  360/ 16/ 20   N/A
CHES BAY BRIDGE  0848   47 48  360/ 19/ 22 1013.1R
CAPE HENRY VA    0848   46     350/ 24/ 26   N/A
WILLOUBY STN VA  0842   47     360/ 12/ 15 1014.2R
S CRANEY ISL VA  0848   49     360/ 11/ 16 1013.1R
CAPE HENRY BUOY  0842      50                N/A     5/11   2/11
OFFSHORE WE BUOY 0851      49                N/A     5/11   2/11
64NM E OF VA BCH 0850   50 51  340/ 21/ 27 1011.5R   6/10   5/10
DUCK PIER NC     0848   52 49  310/ 18/ 20 1012.2R
44100 DUCK FRF   0835      50                N/A     4/10   2/11
44056 DUCK FRF   0830      50                N/A     3/10   2/11
OREGON INLET NC  0842   54 62  300/  9/ 19 1012.4R
HATTERAS NC      0848   56 64  320/ 18/ 23 1012.4R
DIAMOND SHLS NC  0850   60 73  340/ 19/ 23 1012.0R   7/10   5/10
CAPE LOOKOUT NC  0900   56     340/ 17/ 19 1013.4R
$$




USA.gov is the U.S. government's official web portal to all federal, state and local government web resources and services.